Weather History for Patuxent River, MD

Change the Weather History Date:

Wednesday, February 6, 2013

  Actual Average Record
Temperature  
Mean Temperature 37 °F -  
Max Temperature 46 °F 37 °F 33 °F (2014)
Min Temperature 28 °F 23 °F 28 °F (2014)
Degree Days  
Heating Degree Days 28    
Moisture  
Dew Point 28 °F    
Average Humidity 74    
Maximum Humidity 93    
Minimum Humidity 52    
Precipitation  
Precipitation 0.00 in - - ()
Sea Level Pressure  
Sea Level Pressure 30.14 in    
Wind  
Wind Speed 6 mph (NNW)    
Max Wind Speed 15 mph    
Max Gust Speed -    
Visibility 6 miles    
Events      
Averages and records for this station are not official NWS values.
T = Trace of Precipitation, MM = Missing Value Source: NWS Daily Summary

Daily Weather History Graph

Daily Weather History Graph

Search for Another Location

Airport:

Trip Planner

Search our weather history database for the weather conditions in past years. The results will help you decide how hot, cold, wet, or windy it might be!

Date:

Astronomy

Feb. 06, 2013 Rise Set
Actual Time 7:05 AM EST 5:34 PM EST
Civil Twilight 6:38 AM EST 6:01 PM EST
Nautical Twilight 6:06 AM EST 6:33 PM EST
Astronomical Twilight 5:36 AM EST 7:04 PM EST
Moon 3:45 AM EST (2/6) 1:51 PM EST (2/6)
Length of Visible Light 11h 23m
Length of Day
10h 28m
Waning Crescent, 17% of the Moon is Illuminated
Feb 6
Waning Crescent
Feb 10
New
Feb 17
First Quarter
Feb 25
Full
Mar 4
Last Quarter

Hourly Weather History & Observations

Time (EST) Temp. Windchill Dew Point Humidity Pressure Visibility Wind Dir Wind Speed Gust Speed Precip Events Conditions
12:52 AM 34.0 °F 28.0 °F 30.9 °F 89% 29.94 in 4.0 mi NW 6.9 mph - N/A   Partly Cloudy
1:52 AM 34.0 °F 31.0 °F 30.0 °F 85% 29.96 in 4.0 mi WNW 3.5 mph - N/A   Scattered Clouds
2:52 AM 30.9 °F 27.5 °F 28.9 °F 92% 29.96 in 3.0 mi NNW 3.5 mph - N/A   Partly Cloudy
3:33 AM 30.2 °F 25.4 °F 26.6 °F 86% 29.97 in 2.5 mi SW 4.6 mph - N/A   Partly Cloudy
3:52 AM 30.0 °F 26.5 °F 28.0 °F 92% 29.97 in 2.5 mi South 3.5 mph - N/A   Partly Cloudy
4:29 AM 28.4 °F 24.6 °F 24.8 °F 86% 29.99 in 3.0 mi West 3.5 mph - N/A   Clear
4:45 AM 30.2 °F - 26.6 °F 86% 29.98 in 2.0 mi Calm Calm - N/A   Partly Cloudy
4:52 AM 28.9 °F - 27.0 °F 92% 29.98 in 2.5 mi Calm Calm - N/A   Partly Cloudy
5:14 AM 28.4 °F 23.3 °F 26.6 °F 93% 30.00 in 3.0 mi NW 4.6 mph - N/A   Mostly Cloudy
5:52 AM 28.9 °F 23.9 °F 26.1 °F 89% 30.04 in 2.5 mi WSW 4.6 mph - N/A   Scattered Clouds
6:52 AM 28.9 °F 25.2 °F 26.1 °F 89% 30.08 in 2.5 mi West 3.5 mph - N/A   Scattered Clouds
7:52 AM 30.9 °F 27.5 °F 28.0 °F 89% 30.10 in 2.0 mi SW 3.5 mph - N/A   Scattered Clouds
8:52 AM 36.0 °F 33.3 °F 32.0 °F 86% 30.15 in 4.0 mi WNW 3.5 mph - N/A   Scattered Clouds
9:52 AM 41.0 °F 39.0 °F 32.0 °F 70% 30.17 in 5.0 mi NW 3.5 mph - N/A   Haze
10:52 AM 44.1 °F 40.1 °F 30.9 °F 60% 30.18 in 10.0 mi WNW 6.9 mph - N/A   Partly Cloudy
11:52 AM 44.1 °F 38.6 °F 30.0 °F 58% 30.19 in 10.0 mi NNE 10.4 mph - N/A   Scattered Clouds
12:52 PM 45.0 °F 39.3 °F 30.0 °F 56% 30.18 in 10.0 mi NNE 11.5 mph - N/A   Scattered Clouds
1:52 PM 45.0 °F 38.2 °F 28.9 °F 53% 30.18 in 10.0 mi North 15.0 mph - N/A   Scattered Clouds
2:52 PM 46.0 °F 39.9 °F 30.0 °F 54% 30.19 in 10.0 mi North 13.8 mph - N/A   Scattered Clouds
3:52 PM 45.0 °F 38.9 °F 28.0 °F 52% 30.19 in 10.0 mi North 12.7 mph - N/A   Scattered Clouds
4:52 PM 43.0 °F 36.8 °F 28.9 °F 58% 30.22 in 10.0 mi North 11.5 mph - N/A   Clear
5:52 PM 41.0 °F 35.2 °F 28.9 °F 62% 30.25 in 10.0 mi North 9.2 mph - N/A   Scattered Clouds
6:52 PM 39.9 °F 33.4 °F 28.0 °F 63% 30.27 in 10.0 mi North 10.4 mph - N/A   Clear
7:52 PM 39.0 °F 32.8 °F 28.9 °F 67% 30.31 in 10.0 mi North 9.2 mph - N/A   Clear
8:52 PM 36.0 °F 31.1 °F 26.1 °F 67% 30.34 in 10.0 mi NNE 5.8 mph - N/A   Clear
9:52 PM 37.0 °F 31.0 °F 26.1 °F 65% 30.36 in 10.0 mi NNW 8.1 mph - N/A   Clear
10:52 PM 32.0 °F 28.7 °F 24.1 °F 73% 30.36 in 10.0 mi NNW 3.5 mph - N/A   Clear
11:52 PM 32.0 °F - 24.1 °F 73% 30.36 in 10.0 mi Calm Calm - N/A   Clear